(163038) = 2001 XP181

Discovered at Socorro on 2001-12-14 by LINEAR.

Orbit

Orbit type: Main Belt

Note: WebGL enabled browser required.

epoch2023-09-13.0
epoch JD2460200.5
perihelion date2020-08-18.57739
perihelion JD2459080.07739
argument of perihelion (°)231.21875
ascending node (°)111.27410
inclination (°)5.50053
eccentricity0.1405943
perihelion distance (AU)1.8936509
Tisserand w.r.t. Jupiter3.6
ΔV w.r.t. Earth (km/sec)8.6
semimajor axis (AU)2.2034422
mean anomaly (°)337.62392
mean daily motion (°/day)0.30133620
aphelion distance (AU)2.513
period (years)3.27
P-vector [x]0.95033445
P-vector [y]-0.24747321
P-vector [z]-0.18873642
Q-vector [x]0.29813727
Q-vector [y]0.89790565
Q-vector [z]0.32385123
absolute magnitude16.6
phase slope0.15
uncertainty0
referenceMPEC 2024-A34
observations used964
oppositions16
arc length (days)8002
first opposition used2001
last opposition used2023
residual rms (arc-secs)0.74
perturbers coarse indicatorM-v
perturbers precise indicator003Ek
first observation date used2001-12-14.0
last observation date used2023-11-11.0
computer nameMPCLINUX
JD of orbit computation2456494.367353
perihelion JD uncertainty (days)6.6316E-05
argument of perihelion uncertainty (°)5.2690E-05
ascending node uncertainty (°)4.9221E-05
inclination uncertainty (°)6.4443E-06
eccentricity uncertainty 5.1120E-08
perihelion distance uncertainty (AU)1.1575E-07
Minimum Orbit Intersection Distances (in AU)
for orbit epoch: 2460200.5, reference: E2024-A34
Mercury1.49667
Venus1.16624
Earth0.89005
Mars0.51658
Jupiter2.84375
Saturn6.70061
Uranus15.9391
Neptune27.777

Observations

983 total observations over interval: 2001 12 14.38020 – 2023 11 11.099713
These data are available for download (format description).

Date (UT) J2000 RA J2000 Dec Magn Location Ref
2001 12 14.38020 07 47 44.14 +19 38 22.9 19.9   704 – Lincoln Laboratory ETS, New Mexico MPS 45348
2001 12 14.39540 07 47 43.41 +19 38 28.4 19.9   704 – Lincoln Laboratory ETS, New Mexico MPS 45348
2001 12 14.41061 07 47 42.69 +19 38 31.6 20.2   704 – Lincoln Laboratory ETS, New Mexico MPS 45348
2001 12 14.42581 07 47 42.00 +19 38 36.1 19.9   704 – Lincoln Laboratory ETS, New Mexico MPS 45348
2001 12 17.37970 07 45 24.42 +19 50 49.7 19.1   704 – Lincoln Laboratory ETS, New Mexico MPS 45348
2001 12 17.39490 07 45 23.62 +19 50 53.4 19.5   704 – Lincoln Laboratory ETS, New Mexico MPS 45348
2001 12 17.41013 07 45 22.84 +19 50 57.4 19.5   704 – Lincoln Laboratory ETS, New Mexico MPS 45348
2001 12 17.41542 07 45 22.65 +19 50 59.6 19.6   644 – Palomar Mountain/NEAT MPS 45348
2001 12 17.42535 07 45 22.06 +19 51 01.3 19.5   704 – Lincoln Laboratory ETS, New Mexico MPS 45348
2001 12 17.42596 07 45 22.11 +19 51 02.3 19.5   644 – Palomar Mountain/NEAT MPS 45348
2001 12 17.43638 07 45 21.59 +19 51 04.9 19.8   644 – Palomar Mountain/NEAT MPS 45348
2001 12 17.44056 07 45 21.27 +19 51 05.1 19.6   704 – Lincoln Laboratory ETS, New Mexico MPS 45348
2001 12 19.44754 07 43 38.72 +19 59 53.2 19.4   704 – Lincoln Laboratory ETS, New Mexico MPS 45348
2001 12 19.47789 07 43 37.05 +20 00 00.2 19.6   704 – Lincoln Laboratory ETS, New Mexico MPS 45348
2001 12 19.49323 07 43 36.21 +20 00 04.7 19.4   704 – Lincoln Laboratory ETS, New Mexico MPS 45348
2001 12 19.50849 07 43 35.40 +20 00 08.1 19.6   704 – Lincoln Laboratory ETS, New Mexico MPS 45348
2001 12 20.30966 07 42 52.97 +20 03 43.4 19.5   704 – Lincoln Laboratory ETS, New Mexico MPS 46958
2001 12 20.32486 07 42 52.09 +20 03 49.8 20.0   704 – Lincoln Laboratory ETS, New Mexico MPS 46958
2001 12 20.33992 07 42 51.26 +20 03 52.8 19.4   704 – Lincoln Laboratory ETS, New Mexico MPS 46958
2001 12 20.35552 07 42 50.38 +20 03 56.8 19.8   704 – Lincoln Laboratory ETS, New Mexico MPS 46958
2002 01 09.23443 07 21 09.05 +21 41 22.3 18.9   704 – Lincoln Laboratory ETS, New Mexico MPS 46958
2002 01 09.24793 07 21 08.05 +21 41 24.3 18.7   704 – Lincoln Laboratory ETS, New Mexico MPS 46958
2002 01 09.24980 07 21 07.88 +21 41 26.9 19.3   704 – Lincoln Laboratory ETS, New Mexico MPS 46958
2002 01 09.26304 07 21 06.96 +21 41 28.7 18.9   704 – Lincoln Laboratory ETS, New Mexico MPS 46958
2002 01 09.26518 07 21 06.80 +21 41 30.4 19.1   704 – Lincoln Laboratory ETS, New Mexico MPS 46958
2002 01 09.27819 07 21 05.82 +21 41 33.1 19.2   704 – Lincoln Laboratory ETS, New Mexico MPS 46958
2002 01 09.28156 07 21 05.52 +21 41 35.2 19.3   704 – Lincoln Laboratory ETS, New Mexico MPS 46958
2002 01 09.29330 07 21 04.70 +21 41 37.5 19.0   704 – Lincoln Laboratory ETS, New Mexico MPS 46958
2002 01 09.29725 07 21 04.41 +21 41 39.8 19.2   704 – Lincoln Laboratory ETS, New Mexico MPS 46958
2002 01 09.30843 07 21 03.57 +21 41 41.7 19.1   704 – Lincoln Laboratory ETS, New Mexico MPS 46958
2002 01 09.32803 07 21 02.13 +21 41 49.1 19.1   704 – Lincoln Laboratory ETS, New Mexico MPS 46958
2002 01 09.34318 07 21 01.04 +21 41 53.5 19.2   704 – Lincoln Laboratory ETS, New Mexico MPS 46958
2002 01 09.35058 07 21 00.80 +21 41 54.5 20.3   608 – Haleakala-AMOS MPS 46958
2002 01 09.35833 07 20 59.92 +21 41 57.9 19.2   704 – Lincoln Laboratory ETS, New Mexico MPS 46958
2002 01 09.36089 07 21 00.08 +21 41 58.1 20.3   608 – Haleakala-AMOS MPS 46958
2002 01 09.37173 07 20 59.27 +21 42 01.9 20.1   608 – Haleakala-AMOS MPS 46958
2002 01 09.37351 07 20 58.78 +21 42 02.3 19.1   704 – Lincoln Laboratory ETS, New Mexico MPS 46958
2002 01 09.38880 07 20 57.68 +21 42 06.5 18.9   704 – Lincoln Laboratory ETS, New Mexico MPS 46958
2002 01 09.87302 07 20 23.56 +21 44 26.8 19.0 V 046 – Klet Observatory, Ceske Budejovice MPS 46958
2002 01 09.87419 07 20 23.50 +21 44 27.2   046 – Klet Observatory, Ceske Budejovice MPS 46958
2002 01 09.87542 07 20 23.39 +21 44 27.5   046 – Klet Observatory, Ceske Budejovice MPS 46958
2002 01 09.87655 07 20 23.32 +21 44 28.0   046 – Klet Observatory, Ceske Budejovice MPS 46958
2002 01 09.87782 07 20 23.21 +21 44 28.4   046 – Klet Observatory, Ceske Budejovice MPS 46958
2002 01 09.87998 07 20 23.08 +21 44 29.0 19.1 V 046 – Klet Observatory, Ceske Budejovice MPS 46958
2002 01 09.91332 07 20 20.70 +21 44 38.5 18.9 R 621 – Bergisch Gladbach MPS 46958
2002 01 09.91685 07 20 20.43 +21 44 40.1 18.7 R 621 – Bergisch Gladbach MPS 46958
2002 01 09.92039 07 20 20.12 +21 44 40.6 18.5 R 621 – Bergisch Gladbach MPS 46958
2002 01 09.92394 07 20 19.88 +21 44 41.5 18.5 R 621 – Bergisch Gladbach MPS 46958
2002 01 15.24609 07 14 05.36 +22 10 02.3 19.1   704 – Lincoln Laboratory ETS, New Mexico MPS 46958
2002 01 15.26126 07 14 04.21 +22 10 06.2 19.2   704 – Lincoln Laboratory ETS, New Mexico MPS 46958
2002 01 15.27644 07 14 03.11 +22 10 10.7 19.3   704 – Lincoln Laboratory ETS, New Mexico MPS 46958
2002 01 15.30681 07 14 00.92 +22 10 18.6 19.4   704 – Lincoln Laboratory ETS, New Mexico MPS 46958
2002 01 19.25326 07 09 34.35 +22 28 01.4 19.5   704 – Lincoln Laboratory ETS, New Mexico MPS 46958
2002 01 19.26839 07 09 33.35 +22 28 05.0 19.7   704 – Lincoln Laboratory ETS, New Mexico MPS 46958
2002 01 19.28352 07 09 32.29 +22 28 09.7 19.2   704 – Lincoln Laboratory ETS, New Mexico MPS 46958
2002 01 19.29865 07 09 31.22 +22 28 13.6 19.7   704 – Lincoln Laboratory ETS, New Mexico MPS 46958
2002 01 21.22704 07 07 26.56 +22 36 28.0 19.1   704 – Lincoln Laboratory ETS, New Mexico MPS 46958
2002 01 21.24181 07 07 25.51 +22 36 31.0 19.3   704 – Lincoln Laboratory ETS, New Mexico MPS 46958
2002 01 21.25664 07 07 24.67 +22 36 34.4 19.7   704 – Lincoln Laboratory ETS, New Mexico MPS 46958
2002 01 21.27143 07 07 23.67 +22 36 37.8 19.5   704 – Lincoln Laboratory ETS, New Mexico MPS 46958
2002 02 07.24580 06 53 02.32 +23 36 08.0 19.8   704 – Lincoln Laboratory ETS, New Mexico MPS 49761
2002 02 07.26033 06 53 01.81 +23 36 11.0 19.6   704 – Lincoln Laboratory ETS, New Mexico MPS 49761
2002 02 07.27463 06 53 01.14 +23 36 13.0 20.2   704 – Lincoln Laboratory ETS, New Mexico MPS 49761
2002 02 07.29134 06 53 00.66 +23 36 16.7 19.7   704 – Lincoln Laboratory ETS, New Mexico MPS 49761
2003 04 28.32611 15 09 10.68 -08 21 45.6 19.1 C 704 – Lincoln Laboratory ETS, New Mexico MPS 291357
2003 04 28.33820 15 09 10.16 -08 21 40.5 18.1 C 704 – Lincoln Laboratory ETS, New Mexico MPS 291357
2003 04 28.35014 15 09 09.25 -08 21 38.2 19.0 C 704 – Lincoln Laboratory ETS, New Mexico MPS 291357
2003 05 02.33770 15 05 09.36 -08 04 47.6 19.7 V 691 – Steward Observatory, Kitt Peak-Spacewatch MPS 80009
2003 05 02.36571 15 05 07.55 -08 04 40.8 19.5 V 691 – Steward Observatory, Kitt Peak-Spacewatch MPS 80009
2003 05 02.39450 15 05 05.71 -08 04 33.9 19.4 V 691 – Steward Observatory, Kitt Peak-Spacewatch MPS 80009
2003 05 02.40271 15 05 05.20 -08 04 31.7 19.7 V 291 – LPL/Spacewatch II MPS 80009
2003 05 02.41502 15 05 04.42 -08 04 28.7 19.8 V 291 – LPL/Spacewatch II MPS 80009
2003 05 02.42812 15 05 03.60 -08 04 25.4 19.9 V 291 – LPL/Spacewatch II MPS 80009
2003 05 05.28358 15 02 05.90 -07 52 57.4 19.1 R 699 – Lowell Observatory-LONEOS MPS 80009
2003 05 05.30219 15 02 04.76 -07 52 53.5   699 – Lowell Observatory-LONEOS MPS 80009
2003 05 05.32079 15 02 03.58 -07 52 50.4   699 – Lowell Observatory-LONEOS MPS 80009
2003 05 05.33954 15 02 02.16 -07 52 45.0   699 – Lowell Observatory-LONEOS MPS 80009
2003 05 26.17314 14 41 02.47 -06 56 55.7 20.2 V 691 – Steward Observatory, Kitt Peak-Spacewatch MPS 80009
2003 05 26.20185 14 41 00.91 -06 56 53.4 19.9 V 691 – Steward Observatory, Kitt Peak-Spacewatch MPS 80009
2003 05 26.22963 14 40 59.38 -06 56 51.5 19.9 V 691 – Steward Observatory, Kitt Peak-Spacewatch MPS 80009
2003 06 01.26106 14 36 06.57 -06 53 12.5 20.6 V 691 – Steward Observatory, Kitt Peak-Spacewatch MPS 80009
2003 06 01.29030 14 36 05.23 -06 53 12.4 20.5 V 691 – Steward Observatory, Kitt Peak-Spacewatch MPS 80009
2003 06 01.31672 14 36 04.01 -06 53 12.3 20.7 V 691 – Steward Observatory, Kitt Peak-Spacewatch MPS 80009
2004 12 02.26425 04 35 59.09 +15 13 45.7 18.5 R 699 – Lowell Observatory-LONEOS MPS 173841
2004 12 02.28209 04 35 57.73 +15 13 46.6   699 – Lowell Observatory-LONEOS MPS 173841
